Location: *
(58.4167°N, 22.5000°E)
Time: 11:53:22
(UTC+00:00)

Cosmos 2285 Rocket - Pass Details

Date: 22 September 2019
Orbit: 970 x 1000 km, 74.0° (Epoch: 21 October)

Event Time Altitude Azimuth Distance (km) Brightness Sun altitude
Rises 20:25:36 0° 329° (NNW) 3,727 8.4 -27.0°
Reaches altitude 10° 20:28:11 10° 326° (NW) 2,777 7.4 -27.2°
Maximum altitude 20:34:30 61° 248° (WSW) 1,129 4.2 -27.6°
Enters shadow 20:35:25 55° 212° (SSW) 1,187 4.2 -27.7°
